Change the Weather History Date:

Friday, February 21, 2014

  Actual Average Record
Temperature  
Mean Temperature 41 °F 39 °F  
Max Temperature 60 °F 50 °F 79 °F (1935)
Min Temperature 22 °F 28 °F -3 °F (1939)
Degree Days  
Heating Degree Days 24 26  
Month to date heating degree days 731 606  
Since 1 July heating degree days 3705 3466  
Cooling Degree Days 0 0  
Month to date cooling degree days 0 0  
Year to date cooling degree days 0 0  
Moisture  
Dew Point 18 °F    
Average Humidity 50    
Maximum Humidity 81    
Minimum Humidity 19    
Precipitation  
Precipitation 0.00 in 0.05 in 0.98 in (1971)
Month to date precipitation 0.84 0.85  
Year to date precipitation 0.97 1.68  
Snow  
Snow 0.00 in 0.00 in 11.60 in (1971)
Month to date snowfall 13.0 2.6  
Since 1 July snowfall 19.4 11.8  
Snow Depth 0.00 in    
Sea Level Pressure  
Sea Level Pressure 29.95 in    
Wind  
Wind Speed 11 mph (SW)    
Max Wind Speed 31 mph    
Max Gust Speed 37 mph    
Visibility 10 miles    
Events      
T = Trace of Precipitation, MM = Missing Value Source: NWS Daily Summary

Daily Weather History Graph

Daily Weather History Graph

Search for Another Location

Airport or City:

Trip Planner

Search our weather history database for the weather conditions in past years. The results will help you decide how hot, cold, wet, or windy it might be!

Date:

Astronomy

Feb. 21, 2014 Rise Set
Actual Time 7:11 AM CST 6:15 PM CST
Civil Twilight 6:45 AM CST 6:41 PM CST
Nautical Twilight 6:14 AM CST 7:12 PM CST
Astronomical Twilight 5:44 AM CST 7:42 PM CST
Moon 12:02 AM CST (2/21) 10:44 AM CST (2/21)
Length of Visible Light 11h 56m
Length of Day
11h 03m
Waning Gibbous, 60% of the Moon is Illuminated
Feb 21
Waning Gibbous
Feb 22
Last Quarter
Mar 1
New
Mar 8
First Quarter
Mar 16
Full

Hourly Weather History & Observations

Time (CST) Temp. Windchill Dew Point Humidity Pressure Visibility Wind Dir Wind Speed Gust Speed Precip Events Conditions
12:53 AM 32.0 °F 23.6 °F 21.0 °F 64% 30.01 in 10.0 mi WSW 10.4 mph - N/A   Clear
1:53 AM 26.1 °F 18.4 °F 19.0 °F 75% 30.00 in 10.0 mi WSW 6.9 mph - N/A   Clear
2:53 AM 25.0 °F 15.5 °F 19.0 °F 78% 30.00 in 10.0 mi WSW 9.2 mph - N/A   Clear
3:53 AM 26.1 °F 18.4 °F 18.0 °F 71% 29.99 in 10.0 mi WSW 6.9 mph - N/A   Clear
4:53 AM 26.1 °F 20.5 °F 18.0 °F 71% 29.98 in 10.0 mi WSW 4.6 mph - N/A   Clear
5:53 AM 26.1 °F 19.4 °F 17.1 °F 69% 29.98 in 10.0 mi WSW 5.8 mph - N/A   Clear
6:53 AM 27.0 °F - 16.0 °F 63% 29.98 in 10.0 mi Calm Calm - N/A   Partly Cloudy
7:53 AM 28.0 °F 20.0 °F 19.0 °F 69% 29.98 in 10.0 mi SW 8.1 mph - N/A   Partly Cloudy
8:53 AM 37.9 °F 32.1 °F 18.0 °F 45% 29.98 in 10.0 mi WSW 8.1 mph - N/A   Partly Cloudy
9:53 AM 46.0 °F 38.8 °F 17.1 °F 31% 29.98 in 10.0 mi SW 18.4 mph - N/A   Partly Cloudy
10:53 AM 52.0 °F - 14.0 °F 22% 29.96 in 10.0 mi SW 23.0 mph 34.5 mph N/A   Partly Cloudy
11:53 AM 54.0 °F - 15.1 °F 22% 29.95 in 10.0 mi WSW 26.5 mph 35.7 mph N/A   Partly Cloudy
12:53 PM 55.0 °F - 17.1 °F 23% 29.93 in 10.0 mi SW 27.6 mph 33.4 mph N/A   Scattered Clouds
1:53 PM 55.9 °F - 17.1 °F 22% 29.91 in 10.0 mi WSW 20.7 mph - N/A   Mostly Cloudy
2:53 PM 59.0 °F - 17.1 °F 20% 29.91 in 10.0 mi WSW 20.7 mph - N/A   Scattered Clouds
3:53 PM 60.1 °F - 17.1 °F 19% 29.90 in 10.0 mi WSW 19.6 mph 27.6 mph N/A   Scattered Clouds
4:53 PM 59.0 °F - 18.0 °F 20% 29.90 in 10.0 mi WSW 16.1 mph - N/A   Scattered Clouds
5:53 PM 55.9 °F - 18.0 °F 23% 29.91 in 10.0 mi West 9.2 mph - N/A   Partly Cloudy
6:53 PM 45.0 °F 43.5 °F 21.0 °F 39% 29.94 in 10.0 mi WSW 3.5 mph - N/A   Partly Cloudy
7:53 PM 39.0 °F 34.8 °F 21.9 °F 50% 29.95 in 10.0 mi SSW 5.8 mph - N/A   Partly Cloudy
8:53 PM 41.0 °F 38.0 °F 21.9 °F 47% 29.94 in 10.0 mi South 4.6 mph - N/A   Clear
9:53 PM 42.1 °F 40.2 °F 19.9 °F 41% 29.94 in 10.0 mi ESE 3.5 mph - N/A   Partly Cloudy
10:53 PM 41.0 °F 38.0 °F 21.0 °F 45% 29.92 in 10.0 mi ENE 4.6 mph - N/A   Clear
11:53 PM 34.0 °F - 23.0 °F 64% 29.93 in 10.0 mi Calm Calm - N/A   Clear